TOM65C EGKK-GCTS

Flight info

Callsign TOM65C
Flight time N/A
Altitude 37000
Route IMVUR N63 SAM M195 LORKU EBOMO KORUL AGADO DIRMA BEXAL UN866 KONBA
Aircraft B789/H-SDE1E2E3FGHIJ2J3J4J5M1RWXY/LB1D1

Departure

Time 2026-05-06 06:32
Airport London Gatwick Airport (EGKK)

Arrival

Time N/A
Airport Tenerife Sur Airport (GCTS)
Time Latitude Longitude Altitude Speed Heading
2026-05-06 06:11 51.15821 -0.17630 210 ft 0 kts 347°
2026-05-06 06:16 51.15800 -0.17622 210 ft 4 kts 347°
2026-05-06 06:17 51.15775 -0.17613 219 ft 2 kts 347°
2026-05-06 06:17 51.15754 -0.17599 210 ft 4 kts 297°
2026-05-06 06:17 51.15754 -0.17564 220 ft 4 kts 254°
2026-05-06 06:17 51.15757 -0.17549 210 ft 8 kts 257°
2026-05-06 06:20 51.15756 -0.17550 210 ft 1 kts 257°
2026-05-06 06:21 51.15755 -0.17564 210 ft 2 kts 257°
2026-05-06 06:21 51.15750 -0.17596 210 ft 4 kts 257°
2026-05-06 06:21 51.15743 -0.17645 218 ft 5 kts 257°
2026-05-06 06:21 51.15734 -0.17712 220 ft 7 kts 257°
2026-05-06 06:22 51.15723 -0.17794 210 ft 8 kts 257°
2026-05-06 06:22 51.15709 -0.17891 217 ft 10 kts 257°
2026-05-06 06:22 51.15694 -0.18000 210 ft 11 kts 258°
2026-05-06 06:22 51.15678 -0.18124 220 ft 12 kts 258°
2026-05-06 06:23 51.15659 -0.18256 213 ft 12 kts 257°
2026-05-06 06:23 51.15616 -0.18348 220 ft 10 kts 193°
2026-05-06 06:23 51.15548 -0.18335 212 ft 10 kts 168°
2026-05-06 06:23 51.15473 -0.18310 219 ft 12 kts 168°
2026-05-06 06:24 51.15388 -0.18280 220 ft 13 kts 167°
2026-05-06 06:24 51.15296 -0.18248 210 ft 14 kts 167°
2026-05-06 06:24 51.15209 -0.18243 210 ft 11 kts 212°
2026-05-06 06:24 51.15185 -0.18339 218 ft 10 kts 258°
2026-05-06 06:25 51.15169 -0.18455 216 ft 11 kts 258°
2026-05-06 06:25 51.15151 -0.18585 213 ft 13 kts 257°
2026-05-06 06:25 51.15109 -0.18895 214 ft 15 kts 257°
2026-05-06 06:26 51.15087 -0.19058 213 ft 15 kts 258°
2026-05-06 06:26 51.15064 -0.19222 210 ft 15 kts 258°
2026-05-06 06:26 51.15042 -0.19388 211 ft 16 kts 257°
2026-05-06 06:26 51.15018 -0.19558 211 ft 16 kts 257°
2026-05-06 06:27 51.14994 -0.19733 211 ft 16 kts 257°
2026-05-06 06:27 51.14969 -0.19912 214 ft 17 kts 257°
2026-05-06 06:27 51.14944 -0.20096 220 ft 17 kts 258°
2026-05-06 06:27 51.14917 -0.20286 210 ft 18 kts 257°
2026-05-06 06:28 51.14890 -0.20479 219 ft 18 kts 257°
2026-05-06 06:28 51.14863 -0.20676 212 ft 18 kts 257°
2026-05-06 06:28 51.14835 -0.20875 213 ft 18 kts 257°
2026-05-06 06:28 51.14810 -0.21054 218 ft 15 kts 257°
2026-05-06 06:29 51.14781 -0.21217 214 ft 15 kts 254°
2026-05-06 06:29 51.14753 -0.21364 218 ft 10 kts 238°
2026-05-06 06:29 51.14699 -0.21393 210 ft 8 kts 169°
2026-05-06 06:29 51.14651 -0.21352 220 ft 8 kts 149°
2026-05-06 06:30 51.14597 -0.21319 211 ft 9 kts 165°
2026-05-06 06:30 51.14543 -0.21275 211 ft 9 kts 137°
2026-05-06 06:30 51.14521 -0.21189 215 ft 8 kts 89°
2026-05-06 06:30 51.14530 -0.21108 221 ft 7 kts 76°
2026-05-06 06:31 51.14542 -0.21025 213 ft 11 kts 77°
2026-05-06 06:31 51.14571 -0.20814 219 ft 35 kts 78°
2026-05-06 06:31 51.14657 -0.20185 221 ft 81 kts 77°
2026-05-06 06:31 51.14811 -0.19066 219 ft 125 kts 77°
2026-05-06 06:32 51.15025 -0.17516 281 ft 153 kts 80°
2026-05-06 06:32 51.15224 -0.15996 768 ft 144 kts 77°
2026-05-06 06:32 51.15478 -0.14374 1107 ft 162 kts 73°
2026-05-06 06:32 51.15729 -0.12506 1548 ft 181 kts 76°
2026-05-06 06:33 51.15993 -0.10476 1852 ft 192 kts 76°
2026-05-06 06:33 51.16274 -0.08397 2050 ft 190 kts 75°
2026-05-06 06:33 51.16714 -0.06423 2194 ft 199 kts 51°
2026-05-06 06:33 51.17871 -0.05132 2370 ft 208 kts 18°
2026-05-06 06:34 51.19314 -0.05142 2567 ft 213 kts 352°
2026-05-06 06:34 51.20765 -0.05693 2788 ft 216 kts 344°
2026-05-06 06:34 51.21991 -0.07129 2974 ft 225 kts 314°
2026-05-06 06:34 51.22651 -0.09422 3158 ft 236 kts 283°
2026-05-06 06:35 51.22550 -0.12068 3312 ft 242 kts 263°
2026-05-06 06:35 51.22230 -0.14666 3456 ft 242 kts 261°
2026-05-06 06:35 51.21904 -0.17299 3595 ft 241 kts 262°
2026-05-06 06:35 51.21602 -0.19922 3730 ft 241 kts 263°
2026-05-06 06:36 51.21305 -0.22548 3868 ft 243 kts 263°
2026-05-06 06:36 51.20988 -0.25332 4021 ft 264 kts 262°
2026-05-06 06:36 51.20650 -0.28236 4017 ft 268 kts 262°
2026-05-06 06:36 51.20314 -0.31109 4005 ft 271 kts 262°
2026-05-06 06:37 51.19967 -0.34072 3992 ft 270 kts 261°
2026-05-06 06:37 51.19509 -0.36976 3990 ft 270 kts 260°
2026-05-06 06:37 51.19189 -0.39880 3994 ft 269 kts 263°
2026-05-06 06:37 51.18853 -0.42814 3998 ft 270 kts 261°
2026-05-06 06:38 51.18463 -0.45739 4019 ft 269 kts 260°
2026-05-06 06:38 51.18066 -0.48661 4001 ft 270 kts 260°
2026-05-06 06:38 51.17683 -0.51585 4017 ft 269 kts 261°
2026-05-06 06:38 51.17157 -0.54398 4313 ft 264 kts 246°
2026-05-06 06:39 51.16382 -0.57101 4780 ft 271 kts 250°
2026-05-06 06:39 51.15698 -0.59876 5228 ft 269 kts 250°
2026-05-06 06:39 51.14983 -0.62643 5683 ft 270 kts 249°
2026-05-06 06:39 51.14240 -0.65387 6140 ft 269 kts 249°
2026-05-06 06:40 51.13501 -0.68131 6594 ft 270 kts 249°
2026-05-06 06:40 51.12776 -0.70850 7039 ft 271 kts 249°
2026-05-06 06:40 51.12036 -0.73626 7484 ft 273 kts 249°
2026-05-06 06:40 51.11291 -0.76408 7943 ft 274 kts 249°
2026-05-06 06:41 51.10540 -0.79204 8391 ft 275 kts 249°
2026-05-06 06:41 51.09787 -0.82012 8831 ft 277 kts 249°
2026-05-06 06:41 51.09029 -0.84832 9293 ft 278 kts 249°
2026-05-06 06:41 51.08265 -0.87672 9748 ft 281 kts 249°
2026-05-06 06:42 51.07495 -0.90532 10194 ft 283 kts 249°
2026-05-06 06:42 51.06715 -0.93421 10633 ft 286 kts 249°
2026-05-06 06:42 51.05893 -0.96473 10762 ft 315 kts 249°
2026-05-06 06:42 51.04991 -0.99812 10973 ft 342 kts 248°
2026-05-06 06:43 51.04049 -1.03283 11710 ft 348 kts 248°
2026-05-06 06:43 51.03082 -1.06838 12516 ft 353 kts 248°
2026-05-06 06:43 51.02103 -1.10442 13321 ft 357 kts 248°
2026-05-06 06:43 51.01112 -1.14087 14107 ft 361 kts 248°
2026-05-06 06:44 51.00112 -1.17755 14856 ft 364 kts 248°
2026-05-06 06:44 50.99097 -1.21468 15582 ft 368 kts 248°
2026-05-06 06:44 50.98075 -1.25206 16290 ft 371 kts 248°
2026-05-06 06:44 50.97040 -1.28986 16963 ft 375 kts 248°
2026-05-06 06:45 50.95914 -1.32728 17601 ft 379 kts 238°